Location: Napa Soda Springs
(38.3907°N, 122.2794°W)
Time: 08:23:23
(UTC+00:00)

COSMO-SKYMED 1 - Pass Details

Date: 29 October 2020
Orbit: 621 x 623 km, 97.9° (Epoch: 02 December)

Event Time Altitude Azimuth Distance (km) Brightness Sun altitude
Rises 13:21:25 0° 165° (SSE) 2,889 6.3 -14.6°
Reaches altitude 10° 13:23:36 10° 165° (SSE) 1,987 5.4 -14.1°
Maximum altitude 13:27:56 86° 79° (ENE) 631 2.6 -13.3°
Drops below altitude 10° 13:32:17 10° 349° (NNW) 2,001 5.0 -12.4°
Sets 13:34:29 0° 349° (NNW) 2,912 5.8 -12.0°
